GOES 9 [-]

Last updated on June 19, 2021, 11:20 a.m. UTC

1 23581U 95025A   21169.23938380 -.00000016  00000-0  00000-0 0  9993
2 23581  12.3535  26.9711 0008274  68.8109 295.5187  0.98799660 94733
UTC
Height (km)
Latitude
Longitude
Inclination
Orbital Period
UTC large
Height (km)
Speed (km/s)
/
Latitude / Longitude
Inclination (degrees)
Orbital Period (minutes)
Azimuth
Elevation
Range (km)
Doppler Factor
iOS Compass Heading
iOS Angle

Next 30 passes for location: Hong Kong

Rise time Rise Azimuth (degrees) Set time Set Azimuth (degrees) Duration Max altitude (degrees)

No matching passes for this satellites